Temp
10 10 9 9 9 9 8 9 8 7 6 7 6 6 5 5 5 6 4 0 1 1 4 5 6 6 6 6 6 6 6 7 8 8 9 10 10 11 11 10 13 14 15 13 15
10 9 9 9 9 9 9 8 8 7 7 7 6 6 6 5 4 5 1 0 0 1 3 2 2 1 4 4 5 4 5 7 8 7 6 6 7 7 9 9 10 12 13 14 12
9 9 9 9 8 8 7 7 7 7 6 6 6 6 6 6 5 1 1 1 2 2 2 2 1 1 1 2 2 2 4 3 3 3 2 4 5 6 8 9 9 8 10 11 12
9 9 9 9 8 8 7 6 6 6 6 6 5 5 5 5 0 -0 1 1 1 1 2 2 1 0 -1 -1 0 -1 0 1 2 1 2 2 3 4 5 7 8 8 8 9 10
9 9 9 9 8 8 7 7 6 6 6 5 5 5 6 1 -2 0 1 1 1 0 0 -0 -1 -1 -2 -2 -1 -1 -0 0 0 0 1 2 3 3 4 5 6 7 8 9 9
9 9 9 8 8 8 8 7 6 6 6 5 4 4 5 -2 -1 1 1 1 -1 -1 -0 -1 -2 -2 -2 -2 -2 -1 -1 -0 -0 0 1 1 2 3 4 5 5 6 7 8 8
9 9 9 8 8 8 8 7 6 6 5 5 4 4 3 -1 -1 1 1 0 -0 -1 -1 -0 -1 -2 -2 -2 -1 -2 -2 -0 0 0 1 2 1 2 -1 2 4 5 5 6 7
9 9 8 8 8 8 7 6 5 5 5 4 3 3 -0 -1 -0 -0 -0 1 -0 -1 -1 -1 -1 -2 -3 -2 -2 -2 -2 -3 -1 -0 1 1 1 -2 -3 1 -0 -1 -1 0 2
9 8 8 8 8 8 7 6 5 5 5 4 3 3 0 0 -1 -0 -1 -1 -0 -1 -1 -1 -1 -3 -3 -4 -5 -4 -6 -5 -3 -1 -1 -1 -0 -3 -5 -5 -4 -5 -5 -5 -3
8 8 8 8 7 7 6 5 5 5 4 4 3 3 1 -1 -2 -1 -0 -1 -3 -1 -2 -3 -3 -3 -4 -5 -7 -7 -7 -5 -5 -3 -2 -2 -4 -5 -6 -6 -7 -7 -7 -7 -7
8 8 8 8 7 7 6 5 5 4 3 2 0 1 -1 -1 -2 -2 -2 -2 -3 -4 -5 -4 -4 -6 -6 -4 -5 -7 -9 -8 -5 -3 -4 -4 -4 -6 -7 -7 -7 -8 -8 -8 -8
8 8 8 8 6 6 6 5 4 3 -0 -0 -0 -1 -2 -2 -1 -3 -2 -3 -5 -5 -5 -6 -6 -4 -3 -4 -5 -5 -6 -6 -4 -4 -4 -4 -5 -5 -7 -8 -9 -9 -9 -9 -9
7 7 7 7 7 6 5 4 3 3 1 0 -0 -1 -2 -2 -3 -4 -4 -5 -6 -5 -7 -6 -5 -4 -4 -5 -6 -6 -7 -6 -7 -5 -5 -5 -4 -7 -7 -7 -8 -9 -9 -10 -10
7 7 7 7 6 5 5 3 3 2 -1 1 0 -1 -0 -1 -3 -3 -4 -5 -5 -6 -7 -6 -5 -5 -5 -5 -6 -7 -4 -7 -8 -8 -5 -4 -3 -7 -7 -7 -8 -9 -10 -10 -10
7 7 7 6 6 5 4 3 2 2 2 1 -0 -1 -2 -1 -2 -3 -4 -5 -6 -6 -6 -6 -6 -6 -6 -6 -5 -6 -7 -7 -7 -8 -8 -4 -4 -8 -7 -9 -9 -10 -10 -10 -11
7 6 6 6 5 5 3 2 2 0 1 1 -1 -2 -2 -3 -4 -4 -4 -6 -6 -7 -5 -7 -6 -6 -7 -5 -5 -7 -8 -6 -7 -9 -10 -5 -5 -10 -9 -10 -9 -10 -10 -10 -11
7 6 6 6 5 5 3 2 0 2 2 1 -3 -3 -3 -4 -4 -6 -8 -11 -10 -11 -9 -8 -7 -8 -7 -8 -6 -11 -11 -12 -9 -11 -7 -6 -8 -10 -10 -10 -10 -10 -11 -11 -11
7 6 6 6 5 5 3 1 3 1 -0 -2 -3 -3 -4 -5 -5 -7 -8 -11 -11 -13 -12 -11 -10 -13 -10 -11 -10 -12 -15 -12 -11 -10 -8 -8 -10 -9 -10 -9 -10 -11 -11 -11 -11
7 6 6 6 5 5 3 -1 -0 -2 -2 -3 -3 -2 -3 -4 -6 -7 -13 -12 -13 -13 -12 -12 -11 -8 -7 -9 -10 -11 -13 -14 -12 -11 -10 -15 -12 -10 -9 -9 -10 -11 -11 -11 -11
6 6 5 5 5 5 1 1 -4 -2 -3 -3 -2 -4 -4 -6 -6 -9 -13 -10 -9 -8 -10 -14 -12 -11 -8 -9 -11 -11 -16 -13 -15 -13 -13 -14 -16 -9 -11 -11 -11 -11 -12 -12 -11
6 6 5 5 5 5 -1 -3 -3 -3 -3 -3 -4 -4 -5 -6 -7 -10 -13 -10 -8 -8 -9 -13 -14 -11 -9 -15 -15 -13 -14 -17 -17 -15 -12 -13 -10 -15 -13 -12 -12 -12 -12 -12 -11
5 4 5 5 4 -3 -2 -2 -2 -4 -3 -4 -4 -5 -5 -6 -7 -7 -8 -8 -7 -8 -8 -10 -16 -14 -13 -20 -20 -22 -18 -19 -13 -14 -19 -16 -12 -15 -14 -14 -12 -12 -11 -12 -12
4 5 5 5 3 -3 -3 -3 -3 -4 -4 -4 -4 -5 -5 -6 -7 -7 -7 -6 -7 -7 -10 -8 -13 -13 -11 -14 -14 -16 -22 -23 -20 -18 -21 -14 -11 -17 -15 -14 -11 -12 -11 -11 -12
3 1 4 4 0 -3 -3 -2 -3 -3 -4 -4 -4 -5 -6 -7 -8 -9 -7 -6 -7 -7 -6 -8 -11 -10 -11 -11 -13 -13 -14 -21 -19 -15 -20 -17 -14 -12 -14 -14 -12 -11 -11 -12 -12
3 0 -0 1 -1 -3 -3 -3 -3 -3 -4 -4 -5 -6 -7 -9 -7 -8 -8 -7 -7 -7 -9 -10 -13 -12 -12 -11 -10 -11 -11 -16 -17 -18 -12 -16 -18 -13 -14 -15 -12 -12 -12 -12 -12
2 1 -0 -3 -3 -2 -6 -4 -2 -3 -5 -5 -6 -5 -8 -8 -7 -8 -10 -8 -8 -9 -10 -12 -13 -12 -12 -10 -10 -10 -9 -11 -15 -25 -21 -23 -18 -16 -13 -13 -12 -11 -12 -12 -13
2 2 1 -3 -5 -5 -4 -2 -2 -2 -3 -3 -5 -6 -7 -7 -5 -5 -6 -7 -7 -10 -10 -12 -14 -12 -12 -11 -11 -10 -11 -12 -14 -19 -16 -14 -12 -18 -15 -13 -11 -10 -11 -12 -12
Height
1556 1555 1554 1551 1548 1546 1544 1541 1539 1537 1535 1535 1534 1533 1532 1529 1529 1525 1516 1532 1525 1519 1512 1507 1504 1500 1498 1498 1499 1500 1501 1484 1482 1481 1476 1476 1474 1472 1470 1468 1467 1466 1466 1467 1465
1559 1556 1552 1550 1547 1545 1542 1541 1539 1538 1537 1536 1535 1534 1532 1530 1529 1528 1532 1528 1521 1515 1509 1503 1499 1498 1498 1498 1498 1498 1492 1479 1480 1480 1481 1480 1479 1475 1471 1467 1466 1464 1464 1466 1465
1560 1557 1555 1553 1551 1549 1546 1543 1541 1540 1539 1538 1537 1535 1533 1530 1530 1533 1529 1524 1518 1514 1509 1505 1501 1498 1498 1498 1498 1495 1485 1485 1483 1484 1485 1482 1478 1477 1472 1466 1466 1466 1464 1464 1465
1560 1557 1555 1553 1551 1548 1547 1546 1544 1543 1541 1538 1537 1537 1534 1530 1545 1536 1529 1523 1518 1514 1510 1504 1501 1501 1503 1503 1501 1500 1490 1491 1488 1487 1484 1483 1481 1476 1473 1468 1466 1466 1466 1465 1465
1560 1558 1556 1553 1551 1548 1545 1543 1543 1543 1542 1541 1538 1537 1535 1531 1543 1539 1531 1523 1518 1513 1509 1506 1505 1506 1507 1506 1502 1498 1492 1490 1488 1486 1483 1479 1476 1477 1469 1468 1463 1463 1463 1463 1464
1561 1559 1556 1553 1550 1548 1544 1542 1541 1540 1541 1539 1538 1538 1535 1535 1544 1538 1530 1523 1516 1513 1510 1507 1508 1507 1507 1505 1503 1497 1493 1488 1484 1481 1476 1473 1468 1469 1464 1465 1460 1460 1461 1462 1464
1560 1557 1554 1552 1550 1547 1545 1544 1542 1540 1541 1539 1538 1537 1537 1548 1546 1538 1530 1522 1517 1514 1512 1510 1510 1509 1509 1504 1500 1496 1493 1487 1482 1480 1474 1468 1466 1466 1465 1460 1458 1460 1458 1459 1459
1560 1557 1554 1551 1549 1545 1543 1541 1542 1544 1540 1537 1537 1536 1540 1544 1544 1534 1529 1524 1519 1517 1515 1513 1512 1511 1512 1506 1499 1497 1495 1495 1484 1481 1474 1471 1465 1472 1465 1455 1459 1457 1456 1453 1452
1560 1557 1554 1551 1548 1545 1543 1542 1540 1541 1541 1539 1536 1536 1543 1544 1539 1534 1529 1525 1522 1519 1517 1515 1513 1516 1514 1509 1509 1505 1512 1503 1489 1485 1480 1480 1469 1477 1472 1464 1463 1462 1459 1455 1451
1559 1557 1554 1552 1548 1545 1543 1543 1541 1541 1542 1541 1539 1540 1544 1544 1541 1536 1531 1528 1524 1520 1518 1517 1517 1519 1515 1515 1524 1518 1513 1505 1499 1487 1480 1478 1480 1482 1477 1472 1471 1468 1465 1460 1455
1557 1554 1552 1550 1548 1546 1547 1545 1547 1544 1541 1549 1549 1546 1546 1544 1542 1535 1529 1528 1524 1522 1524 1522 1520 1524 1524 1520 1519 1517 1517 1510 1497 1490 1487 1482 1483 1485 1483 1475 1472 1472 1468 1464 1459
1557 1554 1551 1548 1547 1546 1543 1542 1540 1546 1549 1549 1550 1546 1544 1543 1541 1538 1532 1529 1529 1529 1528 1528 1529 1528 1524 1519 1515 1510 1508 1501 1491 1489 1491 1480 1483 1485 1486 1486 1484 1479 1472 1465 1459
1557 1555 1552 1548 1545 1544 1541 1541 1541 1542 1545 1551 1551 1549 1546 1545 1545 1542 1535 1533 1534 1533 1535 1535 1534 1528 1523 1518 1514 1508 1507 1502 1502 1489 1481 1483 1481 1489 1489 1488 1485 1480 1477 1470 1463
1557 1555 1551 1548 1548 1543 1540 1539 1539 1541 1550 1554 1552 1551 1548 1544 1546 1547 1541 1541 1538 1540 1538 1537 1533 1530 1526 1520 1517 1510 1500 1502 1499 1499 1483 1481 1468 1487 1489 1487 1484 1482 1477 1471 1465
1555 1552 1550 1548 1547 1546 1543 1538 1540 1542 1560 1552 1552 1552 1549 1549 1551 1550 1546 1541 1545 1544 1544 1540 1536 1531 1528 1523 1517 1508 1501 1497 1494 1499 1498 1476 1477 1502 1493 1490 1489 1488 1483 1477 1471
1553 1551 1548 1548 1545 1543 1541 1540 1538 1549 1566 1553 1553 1554 1550 1551 1552 1552 1550 1547 1546 1545 1542 1541 1536 1535 1534 1525 1518 1514 1498 1492 1493 1502 1511 1490 1487 1512 1505 1506 1499 1495 1489 1483 1474
1551 1550 1547 1546 1544 1540 1539 1542 1546 1552 1554 1555 1560 1558 1556 1557 1554 1557 1557 1559 1561 1561 1553 1544 1538 1536 1534 1528 1518 1520 1514 1526 1511 1522 1502 1494 1502 1519 1514 1510 1506 1500 1493 1487 1480
1550 1547 1546 1545 1544 1541 1539 1542 1550 1557 1555 1562 1562 1559 1559 1562 1559 1560 1562 1570 1566 1570 1570 1568 1554 1548 1538 1541 1538 1536 1546 1541 1543 1531 1509 1503 1516 1512 1513 1510 1506 1503 1496 1489 1482
1548 1545 1544 1543 1541 1539 1541 1557 1559 1562 1559 1561 1561 1560 1560 1562 1564 1562 1574 1574 1570 1567 1576 1576 1563 1543 1539 1539 1539 1538 1550 1551 1546 1537 1530 1546 1524 1514 1512 1509 1505 1500 1496 1490 1486
1546 1545 1545 1543 1540 1539 1541 1553 1561 1561 1561 1560 1563 1567 1566 1566 1565 1569 1577 1567 1565 1564 1564 1574 1571 1549 1541 1541 1542 1544 1553 1552 1559 1558 1557 1549 1552 1517 1515 1509 1506 1501 1497 1493 1486
1545 1542 1543 1543 1540 1540 1553 1559 1558 1560 1561 1560 1565 1568 1569 1570 1569 1575 1578 1565 1562 1562 1562 1568 1577 1556 1544 1559 1562 1551 1556 1565 1569 1566 1553 1560 1526 1526 1521 1514 1511 1505 1500 1496 1488
1544 1542 1542 1540 1544 1547 1553 1555 1556 1559 1560 1560 1562 1566 1567 1568 1570 1569 1566 1562 1559 1559 1561 1562 1577 1572 1562 1561 1559 1563 1566 1572 1562 1565 1583 1570 1537 1517 1517 1514 1511 1506 1500 1496 1492
1543 1540 1539 1539 1545 1552 1554 1555 1556 1558 1559 1559 1560 1563 1565 1567 1571 1566 1561 1556 1557 1557 1561 1558 1570 1574 1553 1562 1557 1559 1571 1574 1574 1574 1590 1563 1531 1517 1516 1512 1507 1505 1501 1496 1493
1545 1542 1539 1537 1541 1544 1551 1553 1556 1556 1557 1556 1558 1562 1564 1565 1566 1567 1560 1555 1555 1554 1554 1556 1562 1563 1573 1559 1558 1557 1553 1569 1567 1563 1580 1560 1533 1515 1514 1512 1506 1502 1500 1496 1489
1545 1543 1542 1541 1542 1544 1546 1549 1552 1554 1556 1555 1558 1559 1561 1568 1562 1562 1558 1555 1554 1554 1554 1556 1568 1561 1555 1546 1546 1544 1542 1554 1560 1558 1544 1541 1545 1519 1514 1510 1505 1501 1498 1495 1492
1545 1545 1543 1543 1544 1544 1547 1548 1546 1549 1551 1553 1555 1552 1556 1559 1552 1556 1556 1556 1553 1555 1555 1557 1566 1559 1550 1540 1540 1537 1531 1533 1544 1566 1557 1557 1539 1511 1507 1507 1503 1500 1497 1494 1492
1544 1544 1543 1544 1544 1546 1543 1541 1541 1542 1545 1545 1547 1550 1552 1546 1544 1545 1547 1548 1550 1552 1555 1559 1564 1561 1555 1542 1539 1536 1527 1528 1531 1537 1532 1530 1510 1509 1505 1502 1500 1497 1495 1494 1492
Wind_Speed
15 16 16 16 15 15 15 16 16 16 15 16 13 12 11 12 11 27 43 34 35 32 32 28 21 19 12 1 7 6 4 11 7 2 4 2 3 4 4 11 9 4 7 9 14
16 16 14 16 15 15 14 15 15 14 15 14 11 11 12 11 9 35 35 36 33 30 31 29 26 23 6 2 3 5 5 7 2 4 7 14 10 15 7 7 5 7 7 6 3
15 15 16 15 16 17 15 14 13 13 13 13 11 11 14 9 5 33 43 36 32 28 25 24 18 15 5 4 3 5 7 11 11 17 20 16 17 11 7 8 4 6 18 14 10
14 14 15 16 15 16 15 13 12 12 12 10 14 16 11 14 6 38 40 31 29 26 24 23 17 8 6 6 7 7 7 15 11 18 20 15 19 17 18 15 20 22 21 23 21
14 15 16 15 15 16 14 11 8 9 9 5 3 9 22 26 18 37 30 26 25 25 19 17 10 6 4 8 15 7 7 11 25 21 20 24 20 17 23 24 31 30 25 25 23
15 16 16 15 14 17 15 9 4 6 8 10 4 6 31 16 26 35 27 25 23 23 19 14 9 6 2 6 4 7 20 24 19 24 24 18 20 12 14 22 33 31 26 22 22
14 15 15 14 14 18 14 8 3 4 9 10 7 7 23 18 28 33 29 26 19 18 23 15 16 32 13 7 9 17 11 14 8 12 13 9 7 4 22 17 25 24 20 20 21
13 14 14 14 14 16 12 7 3 4 10 11 4 12 9 15 27 38 28 29 17 12 14 14 9 14 24 16 7 7 4 9 16 14 11 12 3 16 27 16 15 17 17 12 12
15 14 15 15 12 14 10 6 2 3 5 18 5 3 6 13 30 42 21 29 23 10 23 11 10 11 22 12 5 5 9 16 11 14 17 12 10 17 25 24 23 23 23 22 18
16 14 15 15 11 13 9 4 9 4 2 2 15 5 14 15 17 40 28 29 23 21 8 19 8 11 14 11 8 14 14 10 16 12 17 16 9 14 24 27 25 25 25 25 24
15 13 15 14 10 14 8 2 5 1 21 13 13 7 12 13 12 40 35 8 16 20 6 11 14 14 13 14 7 8 5 9 13 8 14 9 8 15 22 30 31 30 29 29 28
15 13 14 14 8 15 9 2 2 6 9 7 6 13 12 8 14 40 36 13 13 13 13 6 13 13 14 17 17 10 12 4 10 15 10 5 9 11 17 21 24 26 30 32 35
14 13 14 14 6 13 11 5 8 9 5 4 7 8 13 5 10 29 38 8 8 11 10 4 5 19 16 17 23 18 6 8 18 23 13 12 4 11 11 22 27 31 28 33 33
14 12 14 14 5 13 8 3 8 4 4 6 6 6 14 2 6 24 36 11 9 7 5 2 10 13 15 19 19 14 16 21 16 4 1 2 2 8 13 15 20 31 35 35 39
14 10 12 12 9 11 8 2 6 3 4 2 3 5 8 8 7 21 24 11 3 8 4 4 7 12 13 19 16 11 24 14 7 3 3 7 1 9 8 16 22 26 31 34 36
14 10 11 13 11 13 8 3 8 5 4 3 2 7 4 7 4 13 13 19 2 4 4 4 7 4 4 19 11 19 11 4 3 1 4 10 4 6 9 14 16 24 28 31 36
13 10 9 13 12 13 5 3 4 6 2 6 4 5 3 5 4 7 6 8 6 8 9 7 5 5 9 9 5 13 8 4 5 5 1 9 7 1 7 11 14 18 26 29 33
13 9 8 12 12 12 4 2 7 2 1 2 4 4 4 7 3 6 3 6 3 3 2 6 9 5 8 2 5 6 4 3 2 4 5 7 2 2 3 8 14 18 23 27 31
12 8 7 11 10 10 2 5 5 4 2 4 3 3 3 2 2 5 2 2 4 1 3 5 6 4 3 2 4 6 5 3 2 1 3 4 4 4 7 11 17 21 25 29 28
10 8 4 8 7 5 3 3 3 1 4 3 1 3 3 5 6 5 2 3 2 1 3 3 6 2 5 2 5 4 1 4 4 5 5 4 4 4 11 15 15 19 23 29 29
9 3 2 8 5 3 3 4 3 3 2 3 2 2 2 3 1 2 3 4 2 1 3 4 3 7 2 3 3 5 4 4 3 2 1 3 4 5 6 9 12 17 23 27 27
5 2 3 5 2 4 3 4 5 4 2 2 3 3 2 1 3 3 4 6 5 1 1 4 4 4 7 4 2 4 4 4 3 6 1 1 6 4 6 11 14 17 23 25 22
8 3 2 1 2 2 2 2 3 4 4 4 4 4 2 3 2 4 4 3 6 3 2 2 1 5 8 4 1 1 1 4 4 2 4 2 5 2 8 11 19 18 23 23 22
5 2 1 2 4 6 5 3 4 3 4 4 4 3 2 3 5 4 3 2 5 4 2 0 2 6 6 9 1 6 3 2 4 1 3 6 8 13 8 10 19 22 22 19 22
3 1 0 2 1 4 2 5 4 4 4 7 3 6 6 1 3 5 4 3 1 2 2 2 3 3 8 15 10 12 12 6 7 6 6 5 7 12 10 8 15 20 20 15 16
3 2 1 2 2 4 2 6 7 3 7 4 4 5 7 6 9 6 5 4 5 2 2 1 3 1 5 2 3 12 14 8 6 3 7 2 10 11 15 12 15 18 16 14 14
4 4 3 3 2 3 4 5 6 7 7 4 8 5 6 14 20 20 14 6 4 6 3 2 1 3 5 5 8 4 6 7 4 4 6 4 9 1 5 11 13 20 20 14 15
Wind_Direction
30 26 26 23 22 19 14 14 14 14 14 21 21 22 11 342 344 350 23 355 345 342 342 340 344 342 344 272 206 193 238 246 256 255 255 39 348 239 283 272 274 247 240 326 307
28 23 19 18 17 16 12 9 10 14 12 14 21 25 12 353 354 12 4 349 347 347 348 351 352 356 355 287 232 199 231 249 198 15 355 329 343 329 323 307 297 293 244 286 309
24 16 16 12 12 10 9 5 5 12 13 16 33 37 24 355 14 357 357 349 348 355 355 353 346 351 13 334 330 300 255 352 353 351 352 334 319 315 301 282 249 344 324 336 350
19 13 14 12 10 6 6 1 359 5 13 37 73 47 19 37 43 354 351 350 350 356 357 356 349 19 1 346 335 328 309 321 313 332 329 323 312 301 290 268 282 301 302 305 322
13 10 12 8 8 5 1 357 353 4 10 18 54 29 20 53 25 351 356 356 352 360 3 2 27 7 2 335 320 264 284 316 312 309 299 295 282 278 283 281 281 292 298 294 301
9 11 8 5 5 358 352 356 358 24 23 8 35 26 35 71 17 358 6 4 5 16 22 24 16 349 317 260 255 294 302 300 301 295 292 267 264 256 257 276 281 285 286 292 312
9 12 6 3 1 1 4 15 12 75 40 28 57 25 37 51 13 9 18 18 14 34 42 46 78 44 349 309 304 299 294 304 298 313 309 320 266 285 348 297 272 302 300 291 280
4 13 5 6 2 5 14 23 40 104 49 40 83 47 76 26 9 17 17 28 31 32 36 56 63 46 26 335 344 339 11 342 314 317 337 332 310 14 3 29 48 9 6 339 318
357 360 4 6 6 9 14 25 124 173 24 40 45 99 57 354 8 17 13 27 40 57 49 47 31 36 10 12 12 33 324 318 306 349 344 360 313 15 17 32 29 19 5 358 342
355 357 3 1 7 13 9 60 79 341 281 322 49 78 19 350 359 12 19 28 33 40 56 40 53 30 13 16 350 318 314 295 295 323 322 323 51 31 25 36 30 20 11 5 355
352 354 359 359 7 15 3 204 305 102 68 68 74 91 8 9 14 14 13 28 29 33 25 29 39 14 351 344 333 292 272 270 288 309 336 339 73 36 24 32 24 15 11 7 358
349 353 355 356 3 10 9 311 187 139 102 63 37 28 23 21 17 15 13 34 33 27 9 15 36 357 347 349 347 332 313 299 296 321 329 310 56 53 34 32 23 14 9 4 359
349 350 352 351 356 3 22 62 131 133 89 46 14 9 14 23 40 11 13 17 31 14 10 45 354 350 355 353 351 339 302 310 308 316 278 236 249 26 20 26 20 17 11 11 3
348 349 351 356 357 357 19 64 162 153 87 343 344 7 5 44 66 14 17 20 17 352 355 329 332 350 347 351 348 320 331 313 300 293 290 177 180 32 3 11 16 6 6 4 3
346 345 353 356 350 354 355 106 167 139 35 2 357 354 10 60 333 8 12 21 19 334 18 297 319 334 351 341 338 300 320 301 295 187 318 19 314 349 1 360 2 357 357 0 2
339 333 351 350 348 354 3 139 139 44 302 353 10 351 22 34 48 355 15 22 318 341 4 273 297 1 308 327 327 331 333 359 76 97 52 342 320 7 14 347 345 351 354 357 0
334 319 324 344 340 350 5 175 38 84 22 353 339 351 82 331 21 31 15 14 36 6 12 330 323 318 357 330 317 4 18 356 11 15 9 4 59 326 323 348 348 341 345 352 2
330 320 308 336 340 346 349 40 66 215 0 26 348 301 50 353 34 13 34 19 24 62 350 17 337 12 326 104 284 8 82 67 335 347 315 16 38 239 248 338 342 349 351 356 1
329 315 295 328 337 342 315 49 198 202 126 5 308 4 351 19 7 19 59 207 228 135 90 9 278 312 328 28 7 321 29 218 267 197 282 319 307 296 314 343 351 350 357 353 356
329 307 276 325 334 341 70 145 150 153 129 96 38 35 318 320 1 42 2 228 324 107 178 262 294 258 305 59 30 97 195 17 9 20 339 312 289 305 331 335 341 344 348 350 355
329 291 247 332 338 17 107 182 145 158 165 120 167 271 244 304 340 303 250 273 183 287 160 142 135 289 345 18 216 348 7 31 118 68 342 309 281 218 270 306 325 329 339 353 354
321 337 268 332 6 59 112 156 131 163 160 116 124 191 202 216 272 269 256 219 191 225 311 199 153 287 244 260 168 125 166 128 97 300 114 177 277 213 246 301 316 329 345 353 1
318 265 255 310 171 106 159 92 156 146 186 155 167 205 153 206 294 219 251 212 181 187 193 202 355 334 347 354 176 108 198 117 99 87 229 133 270 284 298 320 337 335 347 349 356
314 335 27 97 101 132 152 181 160 183 161 163 134 142 139 236 213 276 262 248 202 206 40 192 167 166 205 234 184 300 213 164 134 153 189 231 282 301 316 319 322 336 344 348 352
302 324 279 310 45 108 116 152 153 187 198 183 171 207 171 238 240 225 230 293 164 122 88 97 223 211 248 260 272 261 266 185 185 198 210 256 224 277 286 276 306 322 338 341 351
318 296 5 128 132 124 304 212 181 172 154 215 206 185 176 197 199 235 152 215 243 102 104 75 272 341 286 303 187 284 276 251 200 194 277 259 278 243 267 282 305 323 331 330 342
327 293 269 168 128 97 226 184 208 163 204 184 192 156 206 239 251 270 264 239 229 159 150 134 105 26 271 324 300 286 225 193 208 189 173 230 254 257 281 291 309 318 319 316 331